Regional Weather Roundup
Issued by NWS

Home | Current Version | Previous Version | Text Only | Print | Product List | Glossary On
Versions: 1 2 3 4 5 6 7 8 9 10 11 12 13 14 15 16 17 18 19 20 21 22 23 24 25 26 27 28 29 30 31 32 33 34 35 36 37 38 39 40 41 42 43 44 45 46 47 48 49 50
000
ASUS43 KMKX 191411
RWRWI

WISCONSIN REGIONAL WEATHER ROUNDUP
NATIONAL WEATHER SERVICE MILWAUKEE/SULLIVAN WI
900 AM CDT SAT APR 19 2014

NOTE: "FAIR" INDICATES FEW OR NO CLOUDS BELOW 12,000 FEET WITH NO
SIGNIFICANT WEATHER AND/OR OBSTRUCTIONS TO VISIBILITY.

WIZ001-002-006>008-014>016-023>028-191500-
NORTHWEST WISCONSIN

CITY           SKY/WX    TMP DP  RH WIND       PRES   REMARKS
SUPERIOR ARPT  CLOUDY    33  32  95 E3        30.16S
ASHLAND        CLOUDY    36  26  67 VRB5      30.20F WCI  32
HAYWARD        CLOUDY    38  22  52 SE23G36   30.15F WCI  27
SIREN          CLOUDY    39  26  59 S15G25    30.13R WCI  30
RICE LAKE      MOSUNNY   40  24  53 SE20G30   30.21F WCI  30
LADYSMITH      MOSUNNY   39  24  55 SE18G24   30.26F WCI  29
EAU CLAIRE     MOSUNNY   42  24  49 SE18G26   30.23F
MENOMONIE      MOSUNNY   41  26  54 SE16G23   30.22F
NEW RICHMOND   MOSUNNY   42  29  59 SE13G20   30.15F
OSCEOLA        MOSUNNY   42  31  66 SE15G25   30.16S
$$

WIZ003>005-009-010-017-018-191500-
NORTH CENTRAL WISCONSIN

CITY           SKY/WX    TMP DP  RH WIND       PRES   REMARKS
WOODRUFF       SUNNY     37  26  63 SE14      30.26F WCI  28
RHINELANDER    SUNNY     35  22  58 SE14G23   30.29F WCI  26
EAGLE RIVER    MOSUNNY   35  21  57 SE15G21   30.28F WCI  25
LAND O LAKES   PTSUNNY   35  22  58 SE13G22   30.29F WCI  26
PHILLIPS       PTSUNNY   36  23  59 SE9G20    30.24F WCI  29
TOMAHAWK       SUNNY     36  24  62 SE9G20    30.29F WCI  29
MEDFORD        SUNNY     35  26  68 SE20G26   30.27F WCI  24
MERRILL        SUNNY     36  26  67 CALM      30.31F
$$

WIZ029-030-035-036-043>047-191500-
CENTRAL WISCONSIN

CITY           SKY/WX    TMP DP  RH WIND       PRES   REMARKS
WAUSAU         SUNNY     37  26  64 SE22G30   30.31F WCI  26
MOSINEE        SUNNY     36  28  75 E14G22    30.34F WCI  27
MARSHFIELD     SUNNY     38  26  62 SE23G29   30.30F WCI  27
STEVENS POINT  SUNNY     36  25  65 SE16G22   30.35F WCI  26
WAUPACA        SUNNY     39  28  65 E15G21    30.39F WCI  31
WAUTOMA        SUNNY     40  26  57 SE12G18   30.38F WCI  33
WISC RAPIDS    SUNNY     40  24  53 SE16G23   30.35F WCI  31
CAMP DOUGLAS   SUNNY     40  25  53 SE17      30.32F WCI  32
$$

WIZ011>013-019>022-031-037>040-048>050-191500-
NORTHEAST WISCONSIN

CITY           SKY/WX    TMP DP  RH WIND       PRES   REMARKS
ANTIGO         SUNNY     33  27  77 SE20G25   30.33F WCI  22
STURGEON BAY   MOSUNNY   36  28  75 SE8       30.44F WCI  29
GREEN BAY      MOSUNNY   38  31  76 SE14      30.42F WCI  30
MANITOWOC      MOSUNNY   37  30  75 SE13      30.44F WCI  29
APPLETON       MOSUNNY   37  28  70 SE13      30.41F WCI  29
CLINTONVILLE   SUNNY     37  30  75 SE12      30.40F WCI  30
OSHKOSH        SUNNY     38  28  67 SE13G18   30.38F WCI  30
$$

WIZ032>034-041-042-053>061-191500-
SOUTHWEST WISCONSIN

CITY           SKY/WX    TMP DP  RH WIND       PRES   REMARKS
LA CROSSE      SUNNY     46  23  40 SE15      30.29F
SPARTA         SUNNY     43  22  42 E9        30.32S
VIROQUA        FAIR      40  25  55 SE16G26   30.29R WCI  32
BOSCOBEL       MOSUNNY   45  24  43 E9        30.33F
PRAIRIE DU CHI MOSUNNY   44  25  48 E9        30.31S
PLATTEVILLE    FAIR      43  30  60 E16       30.32F
$$

WIZ056-057-062-063-064-067-068-191500-
SOUTH CENTRAL WISCONSIN

CITY           SKY/WX    TMP DP  RH WIND       PRES   REMARKS
BARABOO/DELLS  SUNNY     41  26  54 E9G16     30.34F
LONE ROCK      MOSUNNY   42  28  57 E14       30.34F
WATERTOWN      SUNNY     40  30  66 E13       30.37F WCI  33
MADISON        MOSUNNY   42  29  59 SE12      30.37F
MIDDLETON      FAIR      42  29  59 E13       30.35F
MONROE         SUNNY     42  30  62 E9        30.35R
JANESVILLE     SUNNY     43  28  56 SE15      30.36S
$$

WIZ051-052-058>065-066-070>072-191500-
SOUTHEAST WISCONSIN

CITY           SKY/WX    TMP DP  RH WIND       PRES   REMARKS
MILWAUKEE      MOSUNNY   38  30  73 E12       30.44R WCI  30
WAUKESHA       MOSUNNY   37  30  75 E13       30.40F WCI  29
MILWAUKEE/TIMM SUNNY     37  28  70 E9G17     30.43S WCI  31
RACINE         SUNNY     39  31  72 E13       30.44R WCI  31
BURLINGTON     SUNNY     39  32  74 E12       30.39F WCI  32
KENOSHA        SUNNY     40  32  73 E12       30.41R WCI  33
FOND DU LAC    SUNNY     39  27  62 SE18      30.39F WCI  30
SHEBOYGAN      MOSUNNY   37  29  72 SE10      30.42F WCI  30
WEST BEND      SUNNY     37  28  70 E13       30.40F WCI  29
JUNEAU         SUNNY     39  27  62 E14       30.38F WCI  31
$$

LSZ147-162-191500-
LAKE SUPERIOR

STATION/POSITION TIME  TEMP    WIND        PRES    WAVE
                       AIR SEA DIR/SP/G            HT/PER
                 (UTC) (F)     (DEG/KT/KT) (MB)    (FT/S)
DEVILS ISLAND    1400   33      90/ 21/ 22 1024.1F
PORT WING        1340   35      70/  3/  7 1022.0F
SAXON HARBOR     1300          180/  6/ 11 1023.4R
$$

LMZ867-665-643>646-191500-
LAKE MICHIGAN

STATION/POSITION TIME  TEMP    WIND        PRES    WAVE
                       AIR SEA DIR/SP/G            HT/PER
                 (UTC) (F)     (DEG/KT/KT) (MB)    (FT/S)
NORTHPORT PIER   1300   33     100/ 10/ 11 1031.5F
SISTER BAY       1309   37     130/ 11/ 18   N/A
KEWAUNEE LAKESHO 1300   34     110/  6/ 10 1031.6S
SHEBOYGAN LAKESH 1400   35     110/  9/ 10 1031.4F
PORT WASHINGTON  1340   37      80/  9/ 10 1031.2R
MILWAUKEE LAKESH 1300   36      70/  8/ 10   N/A
KENOSHA   LAKESH 1400   36      90/  8/ 13   N/A
$$

TC  - TEMPERATURE IN CELSIUS
VSB - VISIBILITY IN STATUTE MILES
WCI - WIND CHILL INDEX
HX  - HEAT INDEX




USA.gov is the U.S. government's official web portal to all federal, state and local government web resources and services.